Time,TemperatureF,DewpointF,PressureIn,WindDirection,WindDirectionDegrees,WindSpeedMPH,WindSpeedGustMPH,Humidity,HourlyPrecipIn,Conditions,Clouds,dailyrainin,SolarRadiationWatts/m^2,SoftwareType,DateUTC
2013-12-27 00:12:00,28.0,18.0,-100.00,SSW,208,2.0,5.0,65,0.00,,,0.00,0.000000,,2013-12-27 07:12:00,
2013-12-27 00:22:00,28.0,18.0,-100.00,SSW,208,2.0,5.0,65,0.00,,,0.00,0.000000,,2013-12-27 07:22:00,
2013-12-27 00:32:00,28.0,18.0,-100.00,SSW,208,2.0,5.0,65,0.00,,,0.00,0.000000,,2013-12-27 07:32:00,
2013-12-27 01:11:00,32.0,19.0,-100.00,WSW,250,5.0,7.0,59,0.00,,,0.00,0.000000,,2013-12-27 08:11:00,
2013-12-27 01:22:00,32.0,19.0,-100.00,WSW,250,5.0,7.0,59,0.00,,,0.00,0.000000,,2013-12-27 08:22:00,
2013-12-27 01:32:00,32.0,19.0,-100.00,WSW,250,5.0,7.0,59,0.00,,,0.00,0.000000,,2013-12-27 08:32:00,
2013-12-27 02:11:00,33.0,20.0,-100.00,WSW,255,5.0,10.0,58,0.00,,,0.00,0.000000,,2013-12-27 09:11:00,
2013-12-27 02:21:00,33.0,20.0,-100.00,WSW,255,5.0,10.0,58,0.00,,,0.00,0.000000,,2013-12-27 09:21:00,
2013-12-27 02:33:00,33.0,20.0,-100.00,WSW,255,5.0,10.0,58,0.00,,,0.00,0.000000,,2013-12-27 09:33:00,
2013-12-27 03:12:00,33.0,20.0,-100.00,WSW,258,5.0,10.0,59,0.00,,,0.00,0.000000,,2013-12-27 10:12:00,
2013-12-27 03:23:00,33.0,20.0,-100.00,WSW,258,5.0,10.0,59,0.00,,,0.00,0.000000,,2013-12-27 10:23:00,
2013-12-27 03:33:00,33.0,20.0,-100.00,WSW,258,5.0,10.0,59,0.00,,,0.00,0.000000,,2013-12-27 10:33:00,
2013-12-27 04:12:00,34.0,21.0,-100.00,West,278,5.0,9.0,58,0.00,,,0.00,0.000000,,2013-12-27 11:12:00,
2013-12-27 04:22:00,34.0,21.0,-100.00,West,278,5.0,9.0,58,0.00,,,0.00,0.000000,,2013-12-27 11:22:00,
2013-12-27 04:32:00,34.0,21.0,-100.00,West,278,5.0,9.0,58,0.00,,,0.00,0.000000,,2013-12-27 11:32:00,
2013-12-27 05:12:00,36.0,22.0,-100.00,North,-999,0.0,9.0,56,0.00,,,0.00,0.000000,,2013-12-27 12:12:00,
2013-12-27 05:22:00,36.0,22.0,-100.00,North,-999,0.0,9.0,56,0.00,,,0.00,0.000000,,2013-12-27 12:22:00,
2013-12-27 05:32:00,36.0,22.0,-100.00,North,-999,0.0,9.0,56,0.00,,,0.00,0.000000,,2013-12-27 12:32:00,
2013-12-27 06:11:00,36.0,22.0,-100.00,NW,313,5.0,12.0,57,0.00,,,0.00,0.000000,,2013-12-27 13:11:00,
2013-12-27 06:22:00,36.0,22.0,-100.00,NW,313,5.0,12.0,57,0.00,,,0.00,0.000000,,2013-12-27 13:22:00,
2013-12-27 06:32:00,36.0,22.0,-100.00,NW,313,5.0,12.0,57,0.00,,,0.00,0.000000,,2013-12-27 13:32:00,
2013-12-27 07:12:00,36.0,22.0,-100.00,North,-999,0.0,12.0,57,0.00,,,0.00,0.000000,,2013-12-27 14:12:00,
2013-12-27 07:22:00,36.0,22.0,-100.00,North,-999,0.0,12.0,57,0.00,,,0.00,0.000000,,2013-12-27 14:22:00,
2013-12-27 07:32:00,36.0,22.0,-100.00,North,-999,0.0,12.0,57,0.00,,,0.00,0.000000,,2013-12-27 14:32:00,
2013-12-27 08:11:00,35.0,22.0,-100.00,North,-999,0.0,0.0,59,0.00,,,0.00,2.000000,,2013-12-27 15:11:00,
2013-12-27 08:22:00,35.0,22.0,-100.00,North,-999,0.0,0.0,59,0.00,,,0.00,2.000000,,2013-12-27 15:22:00,
2013-12-27 08:33:00,35.0,22.0,-100.00,North,-999,0.0,0.0,59,0.00,,,0.00,2.000000,,2013-12-27 15:33:00,
2013-12-27 09:13:00,37.0,23.0,-100.00,North,-999,0.0,0.0,56,0.00,,,0.00,38.000000,,2013-12-27 16:13:00,
2013-12-27 09:23:00,37.0,23.0,-100.00,North,-999,0.0,0.0,56,0.00,,,0.00,38.000000,,2013-12-27 16:23:00,
2013-12-27 09:33:00,37.0,23.0,-100.00,North,-999,0.0,0.0,56,0.00,,,0.00,38.000000,,2013-12-27 16:33:00,
2013-12-27 10:12:00,40.0,23.0,-100.00,North,-999,0.0,0.0,50,0.00,,,0.00,112.000000,,2013-12-27 17:12:00,
2013-12-27 10:22:00,40.0,23.0,-100.00,North,-999,0.0,0.0,50,0.00,,,0.00,112.000000,,2013-12-27 17:22:00,
2013-12-27 10:33:00,40.0,23.0,-100.00,North,-999,0.0,0.0,50,0.00,,,0.00,112.000000,,2013-12-27 17:33:00,
2013-12-27 11:12:00,44.0,23.0,-100.00,WNW,301,5.0,14.0,43,0.01,,,0.01,254.000000,,2013-12-27 18:12:00,
2013-12-27 11:22:00,44.0,23.0,-100.00,WNW,301,5.0,14.0,43,0.01,,,0.01,254.000000,,2013-12-27 18:22:00,
2013-12-27 11:32:00,44.0,23.0,-100.00,WNW,301,5.0,14.0,43,0.01,,,0.01,254.000000,,2013-12-27 18:32:00,
2013-12-27 12:12:00,46.0,23.0,-100.00,WNW,293,6.0,17.0,40,0.02,,,0.03,340.000000,,2013-12-27 19:12:00,
2013-12-27 12:22:00,46.0,23.0,-100.00,WNW,293,6.0,17.0,40,0.02,,,0.03,340.000000,,2013-12-27 19:22:00,
2013-12-27 12:32:00,46.0,23.0,-100.00,WNW,293,6.0,17.0,40,0.02,,,0.03,340.000000,,2013-12-27 19:32:00,
2013-12-27 13:11:00,49.0,24.0,-100.00,West,279,6.0,17.0,37,0.01,,,0.04,467.000000,,2013-12-27 20:11:00,
2013-12-27 13:21:00,49.0,24.0,-100.00,West,279,6.0,17.0,37,0.01,,,0.04,467.000000,,2013-12-27 20:21:00,
2013-12-27 13:32:00,49.0,24.0,-100.00,West,279,6.0,17.0,37,0.01,,,0.04,467.000000,,2013-12-27 20:32:00,
2013-12-27 14:11:00,46.0,21.0,-100.00,WNW,283,6.0,18.0,37,0.00,,,0.04,357.000000,,2013-12-27 21:11:00,
2013-12-27 14:22:00,46.0,21.0,-100.00,WNW,283,6.0,18.0,37,0.00,,,0.04,357.000000,,2013-12-27 21:22:00,
2013-12-27 14:33:00,46.0,21.0,-100.00,WNW,283,6.0,18.0,37,0.00,,,0.04,357.000000,,2013-12-27 21:33:00,
2013-12-27 15:13:00,45.0,20.0,-100.00,West,273,6.0,15.0,37,0.00,,,0.04,246.000000,,2013-12-27 22:13:00,
2013-12-27 15:23:00,45.0,20.0,-100.00,West,273,6.0,15.0,37,0.00,,,0.04,246.000000,,2013-12-27 22:23:00,
2013-12-27 15:32:00,45.0,20.0,-100.00,West,273,6.0,15.0,37,0.00,,,0.04,246.000000,,2013-12-27 22:32:00,
2013-12-27 16:12:00,42.0,22.0,-100.00,SSW,207,3.0,8.0,45,0.00,,,0.04,56.000000,,2013-12-27 23:12:00,
2013-12-27 16:22:00,42.0,22.0,-100.00,SSW,207,3.0,8.0,45,0.00,,,0.04,56.000000,,2013-12-27 23:22:00,
2013-12-27 16:32:00,42.0,22.0,-100.00,SSW,207,3.0,8.0,45,0.00,,,0.04,56.000000,,2013-12-27 23:32:00,
2013-12-27 17:11:00,37.0,21.0,-100.00,NNW,336,1.0,7.0,52,0.00,,,0.04,12.000000,,2013-12-28 00:11:00,
2013-12-27 17:22:00,37.0,21.0,-100.00,NNW,336,1.0,7.0,52,0.00,,,0.04,12.000000,,2013-12-28 00:22:00,
2013-12-27 17:32:00,37.0,21.0,-100.00,NNW,336,1.0,7.0,52,0.00,,,0.04,12.000000,,2013-12-28 00:32:00,
2013-12-27 18:12:00,33.0,20.0,-100.00,ENE,70,2.0,4.0,59,0.00,,,0.04,1.000000,,2013-12-28 01:12:00,
2013-12-27 18:22:00,33.0,20.0,-100.00,ENE,70,2.0,4.0,59,0.00,,,0.04,1.000000,,2013-12-28 01:22:00,
2013-12-27 18:32:00,33.0,20.0,-100.00,ENE,70,2.0,4.0,59,0.00,,,0.04,1.000000,,2013-12-28 01:32:00,
2013-12-27 19:12:00,27.0,19.0,-100.00,NNE,12,2.0,4.0,71,0.00,,,0.04,0.000000,,2013-12-28 02:12:00,
2013-12-27 23:12:00,23.0,17.0,-100.00,North,-999,0.0,3.0,78,-99.99,,,0.04,0.000000,,2013-12-28 06:12:00,